Location: Newark
(41.1200°N, 81.9000°W)
Time: 17:17:06
(UTC+00:00)

OTV 5 (USA 277) - Visible Passes

Search period start: 18 August 2019 00:00
Search period end: 28 August 2019 00:00
Orbit: 305 x 329 km, 54.5° (Epoch: 11 August)

Date Brightness Start Highest point End Pass type
(mag) Time Alt. Az. Time Alt. Az. Time Alt. Az.
18 Aug ? 09:20:41 10° N 09:21:40 11° NNE 09:22:38 10° NE visible
19 Aug ? 09:34:23 10° NNW 09:36:29 20° NNE 09:38:35 10° E visible
20 Aug ? 09:48:35 10° NW 09:51:11 49° NE 09:53:46 10° ESE visible
21 Aug ? 08:29:41 11° N 08:31:13 15° NNE 08:32:52 10° ENE visible
21 Aug ? 10:03:09 10° WNW 10:05:43 49° SW 10:08:17 10° SSE visible
22 Aug ? 08:45:19 26° N 08:45:58 30° NE 08:48:21 10° E visible
23 Aug ? 09:01:43 30° SE 09:01:43 30° SE 09:03:13 10° SE visible
24 Aug ? 01:17:55 10° SSW 01:20:20 33° SE 01:21:18 24° E visible
25 Aug ? 01:32:12 10° SW 01:34:50 72° NW 01:36:58 14° NE visible
26 Aug ? 01:47:10 10° W 01:49:28 26° NNW 01:51:47 10° NNE visible
27 Aug ? 02:02:48 10° WNW 02:04:15 14° NNW 02:05:43 10° N visible
